Regional Weather Roundup
Issued by NWS Jackson, KY

Home | Current Version | Previous Version | Text Only | Print | Product List | Glossary Off
Versions: 1 2 3 4 5 6 7 8 9 10 11 12 13 14 15 16 17 18 19 20 21 22 23 24 25 26 27 28 29

000
ASUS43 KJKL 081610
RWRJKL

EAST KENTUCKY HOURLY WEATHER ROUNDUP
NATIONAL WEATHER SERVICE JACKSON KY
1100 AM EST THU DEC 08 2016

NOTE: "FAIR" INDICATES FEW OR NO CLOUDS BELOW 12,000 FEET WITH
NO SIGNIFICANT WEATHER AND/OR OBSTRUCTIONS TO VISIBILITY.

* THESE REPORTS ARE NOT UNDER NWS QUALITY CONTROL AND MAY NOT
  REPORT WEATHER SUCH AS PRECIPITATION AND FOG.

KYZ079-080-083-085-087-088-110-112-115-119-120-081700
...EASTERN KENTUCKY...

CITY           SKY/WX    TMP DP  RH WIND       PRES   REMARKS
JACKSON        MOSUNNY   34  20  56 W8G17     30.27R WCI  27
LONDON         MOSUNNY   34  20  56 W12       30.32R WCI  25
SOMERSET*      MOSUNNY   34  21  60 W8        30.36S WCI  27
MONTICELLO*    MOSUNNY   35  22  58 W8G20     30.38R WCI  29
WILLIAMSBURG*  SUNNY     34  23  64 W6        30.33R WCI  29
MIDDLESBORO*   MOSUNNY   37  18  47 NW10G17   30.32R WCI  29
HARLAN APT*    MOSUNNY   36  18  48 W6        30.28R WCI  31
PIKE CO APT*     N/A     33  21  59 W5        30.23S WCI  29
BIG SANDY APT* SUNNY     35  22  58 W10G18    30.24S WCI  28
MOREHEAD APT*  PTSUNNY   30  18  59 NW9G21    30.31R WCI  22
ASHLAND*         N/A    N/A N/A N/A MISG        N/A
$$

KYZ035-036-041-042-044-050-067-078-099-081700
...CENTRAL KENTUCKY...

CITY           SKY/WX    TMP DP  RH WIND       PRES   REMARKS
MT STERLING*   CLOUDY    32  21  64 W12G17    30.32R WCI  23
FLEMING/MASON* MOSUNNY   29  18  61 W16G23    30.30R WCI  18
DANVILLE*      PTSUNNY   30  21  69 W13G20    30.35R WCI  20
LEXINGTON      PTSUNNY   32  18  56 W14G21    30.33R WCI  22
FRANKFORT      PTSUNNY   31  18  58 W7G17     30.34R WCI  24
LOUISVILLE     PTSUNNY   31  17  56 W13       30.38S WCI  21
LEBANON*         N/A     32  18  55 W12       30.36S WCI  23
GLASGOW*       MOSUNNY   33  22  63 W10G18    30.41R WCI  25
BOWLING GREEN  MOSUNNY   34  20  56 W9        30.44R WCI  27
$$

KYZ091>093-OHZ055-061-077-WVZ005-015-034-035-042-081700
...SOUTHERN OHIO/WEST VIRGINIA...

CITY           SKY/WX    TMP DP  RH WIND       PRES   REMARKS
COVINGTON      MOSUNNY   29  14  53 W21       30.29R WCI  16
COLUMBUS       CLOUDY    26  18  71 W15       30.22R WCI  14
DAYTON         PTSUNNY   26  14  60 W18G31    30.25R WCI  13
WILMINGTON     MOSUNNY   27  17  66 W15G25    30.23S WCI  15
HUNTINGTON     MOSUNNY   34  20  56 W13G22    30.24R WCI  25
CHARLESTON     MOSUNNY   36  18  48 W18G24    30.20R WCI  26
PINEVILLE*     MOSUNNY   37  17  45 MISG      30.22S
BECKLEY        CLOUDY    33  17  51 W10       30.12R WCI  25
BLUEFIELD      SUNNY     31  15  52 W12G24    30.11F WCI  22
LOGAN CO APT*    N/A     34  19  55 W8G17     30.19R WCI  27
$$

VAZ002-007-008-TNZ017-027-036-066-071-081700
...SOUTHWEST VIRGINIA/EAST TENNESSEE...

CITY           SKY/WX    TMP DP  RH WIND       PRES   REMARKS
WISE*          MOSUNNY   34  14  44 NW12G18   30.19R WCI  25
ABINGDON*      SUNNY     40  18  41 W9        30.18F WCI  34
BRISTOL        CLOUDY    40  20  44 W12       30.23R WCI  33
MORRISTOWN*    SUNNY     39  21  48 W9G15     30.27S WCI  33
SEVIERVILLE*   SUNNY     37  19  48 CALM      30.30S
KNOXVILLE      CLOUDY    41  20  43 W9        30.30S
OAK RIDGE      PTSUNNY   41  20  43 CALM      30.33R
CROSSVILLE     MOSUNNY   34  17  50 NW13      30.31R WCI  25
NASHVILLE      PTSUNNY   37  19  48 NW12      30.44R WCI  29
$$

...KEY TO REMARKS...
VSB - VISIBILITY IN MILES
WCI - WIND CHILL INDEX
HX  - HEAT INDEX

$$




USA.gov is the U.S. government's official web portal to all federal, state and local government web resources and services.